Location: Newark
(48.5156°N, 1.8989°W)
Time: 22:54:32
(UTC+00:00)

Transit 4A - Pass Details

Date: 24 November 2019
Orbit: 870 x 975 km, 66.8° (Epoch: 05 December)

Event Time Altitude Azimuth Distance (km) Brightness Sun altitude
Exits shadow 06:05:34 15° 314° (NW) 2,245 9.4 -13.4°
Maximum altitude 06:10:20 50° 244° (WSW) 1,111 8.0 -12.6°
Drops below altitude 10° 06:15:54 10° 170° (S) 2,510 10.5 -11.7°
Sets 06:18:25 0° 165° (SSE) 3,442 11.4 -11.3°
